Location: Newark
(21.1200°N, 73.4000°E)
Time: 00:16:15
(UTC+00:00)

SR - Pass Details

Date: 03 February 2020
Orbit: 575 x 881 km, 66.7° (Epoch: 21 February)

Event Time Altitude Azimuth Distance (km) Brightness Sun altitude
Rises 00:34:02 0° 346° (NNW) 3,231 ? -16.4°
Reaches altitude 10° 00:36:38 10° 352° (N) 2,252 ? -15.8°
Maximum altitude 00:41:31 45° 65° (ENE) 941 ? -14.7°
Drops below altitude 10° 00:45:59 10° 138° (SE) 2,056 ? -13.7°
Sets 00:48:15 0° 144° (SE) 2,921 ? -13.2°
